{"data":{"norad_id":68896,"intl_designator":"2026-097B","name":"STARLINK-37432","alt_names":[],"object_type":"PAYLOAD","status":"ACTIVE","operator":null,"country":"US","launch_date":"2026-04-30","launch_site_code":"AFWTR","launch_vehicle":null,"mission":null,"orbit_class":"UNKNOWN","rcs_meters":null,"size_class":null,"mass_kg":null,"dimensions":null,"purposes":["comms"],"wikipedia_slug":null,"has_3d_model":false,"image_url":null,"decayed_at":null,"tle_current":{"epoch":"2026-05-25T04:00:03.998880Z","epoch_age_seconds":60702,"freshness":"FRESH","line1":"1 68896U 26097B   26145.16671295 -.02294500  00000+0 -58459-1 0  9991","line2":"2 68896  97.2864 341.0056 0001793  70.9216  61.8883 15.42900535  5215","mean_motion":15.42900535,"eccentricity":0.0001793,"inclination_deg":97.2864,"raan_deg":341.0056,"arg_perigee_deg":70.9216,"mean_anomaly_deg":61.8883,"bstar":-0.058459,"rev_number":521,"period_min":93.330708450367,"perigee_km":436.33187518994,"apogee_km":438.77598195693,"semimajor_km":6815.6909285734,"source":"CELESTRAK","updated_at":"2026-05-25T13:38:22.066200Z"}}}